| time (UTC) | temp F | wind direction | speed MPH | gust MPH | rain 1hr in | rain 24hr in | rain mn in | humidity % | barometer mb |
| 20260831201807 | 91 | 84 | 1.0 | 1.0 | 0.00 | 0.00 | 0.00 | 74 | 1011.8 |
| 20260831201305 | 91 | 85 | 3.0 | 3.0 | 0.00 | 0.00 | 0.00 | 72 | 1011.8 |
| 20260831200801 | 91 | 84 | 1.0 | 2.0 | 0.00 | 0.00 | 0.00 | 74 | 1011.9 |
| 20260831200256 | 90 | 84 | 4.0 | 6.0 | 0.00 | 0.00 | 0.00 | 74 | 1011.6 |
| 20260831195751 | 89 | 83 | 1.0 | 1.0 | 0.00 | 0.00 | 0.00 | 75 | 1011.8 |
| 20260831195247 | 89 | 84 | 2.0 | 2.0 | 0.00 | 0.00 | 0.00 | 75 | 1012.0 |
| 20260831194742 | 89 | 84 | 3.0 | 3.0 | 0.00 | 0.00 | 0.00 | 73 | 1011.8 |
| 20260831194238 | 90 | 84 | 1.0 | 1.0 | 0.00 | 0.00 | 0.00 | 71 | 1011.9 |
| 20260831193731 | 91 | 85 | 3.0 | 5.0 | 0.00 | 0.00 | 0.00 | 69 | 1011.9 |
| 20260831193227 | 91 | 84 | 1.0 | 1.0 | 0.00 | 0.00 | 0.00 | 68 | 1011.9 |
| 20260831192722 | 92 | 84 | 1.0 | 1.0 | 0.00 | 0.00 | 0.00 | 69 | 1011.7 |
| 20260831192217 | 91 | 84 | 1.0 | 1.0 | 0.00 | 0.00 | 0.00 | 69 | 1012.0 |
| 20260831191713 | 90 | 84 | 3.0 | 3.0 | 0.00 | 0.00 | 0.00 | 70 | 1012.0 |
| 20260831191209 | 90 | 84 | 2.0 | 3.0 | 0.00 | 0.00 | 0.00 | 72 | 1011.9 |
| 20260831190704 | 91 | 83 | 0.0 | 1.0 | 0.00 | 0.00 | 0.00 | 74 | 1011.7 |
| 20260831190203 | 91 | 85 | 4.0 | 5.0 | 0.00 | 0.00 | 0.00 | 73 | 1011.9 |
| 20260831185659 | 90 | 83 | 1.0 | 1.0 | 0.00 | 0.00 | 0.00 | 74 | 1011.8 |
| 20260831185154 | 90 | 83 | 1.0 | 1.0 | 0.00 | 0.00 | 0.00 | 73 | 1011.8 |
| 20260831184653 | 89 | 83 | 2.0 | 2.0 | 0.00 | 0.00 | 0.00 | 75 | 1011.6 |
| 20260831184149 | 89 | 83 | 1.0 | 1.0 | 0.00 | 0.00 | 0.00 | 75 | 1011.9 |
| 20260831183649 | 89 | 86 | 4.0 | 5.0 | 0.00 | 0.00 | 0.00 | 74 | 1011.8 |
| 20260831183148 | 89 | 84 | 3.0 | 5.0 | 0.00 | 0.00 | 0.00 | 74 | 1012.0 |
| 20260831182647 | 89 | 83 | 1.0 | 1.0 | 0.00 | 0.00 | 0.00 | 74 | 1012.1 |
| 20260831182143 | 88 | 83 | 1.0 | 2.0 | 0.00 | 0.00 | 0.00 | 75 | 1012.0 |
| 20260831181638 | 88 | 83 | 0.0 | 1.0 | 0.00 | 0.00 | 0.00 | 74 | 1012.1 |
| 20260831181137 | 87 | 83 | 1.0 | 1.0 | 0.00 | 0.00 | 0.00 | 77 | 1012.1 |
| 20260831180633 | 88 | 84 | 2.0 | 3.0 | 0.00 | 0.00 | 0.00 | 74 | 1012.0 |
| 20260831180128 | 88 | 84 | 3.0 | 3.0 | 0.00 | 0.00 | 0.00 | 73 | 1012.2 |
| 20260831175622 | 88 | 84 | 2.0 | 3.0 | 0.00 | 0.00 | 0.00 | 74 | 1012.1 |
| 20260831175120 | 88 | 84 | 3.0 | 5.0 | 0.00 | 0.00 | 0.00 | 74 | 1012.0 |
| 20260831174614 | 88 | 83 | 1.0 | 1.0 | 0.00 | 0.00 | 0.00 | 73 | 1011.9 |
| 20260831174114 | 88 | 83 | 1.0 | 2.0 | 0.00 | 0.00 | 0.00 | 75 | 1011.6 |
| 20260831173613 | 87 | 83 | 1.0 | 2.0 | 0.00 | 0.00 | 0.00 | 75 | 1011.8 |
| 20260831173109 | 88 | 82 | 1.0 | 1.0 | 0.00 | 0.00 | 0.00 | 73 | 1011.4 |
| 20260831172609 | 88 | 82 | 0.0 | 1.0 | 0.00 | 0.00 | 0.00 | 71 | 1011.3 |
| 20260831172103 | 88 | 83 | 1.0 | 1.0 | 0.00 | 0.00 | 0.00 | 71 | 1011.4 |
| 20260831171559 | 87 | 82 | 0.0 | 1.0 | 0.00 | 0.00 | 0.00 | 72 | 1011.8 |
| 20260831171056 | 87 | 83 | 0.0 | 1.0 | 0.00 | 0.00 | 0.00 | 73 | 1011.8 |
| 20260831170552 | 87 | 82 | 0.0 | 0.0 | 0.00 | 0.00 | 0.00 | 72 | 1011.6 |
| 20260831170049 | 86 | 82 | 0.0 | 0.0 | 0.00 | 0.00 | 0.00 | 75 | 1011.7 |
| 20260831165549 | 86 | 83 | 2.0 | 2.0 | 0.00 | 0.00 | 0.00 | 76 | 1011.8 |
| 20260831165046 | 85 | 82 | 1.0 | 1.0 | 0.00 | 0.00 | 0.00 | 78 | 1011.9 |
| 20260831164541 | 85 | 82 | 0.0 | 0.0 | 0.00 | 0.00 | 0.00 | 78 | 1011.5 |
| 20260831164037 | 85 | 82 | 0.0 | 0.0 | 0.00 | 0.00 | 0.00 | 76 | 1011.6 |
| 20260831163532 | 85 | 82 | 0.0 | 0.0 | 0.00 | 0.00 | 0.00 | 76 | 1011.6 |
| 20260831163028 | 85 | 82 | 1.0 | 1.0 | 0.00 | 0.00 | 0.00 | 74 | 1011.3 |
| 20260831162526 | 85 | 82 | 3.0 | 3.0 | 0.00 | 0.00 | 0.00 | 75 | 1011.5 |
| 20260831162024 | 84 | 81 | 1.0 | 1.0 | 0.00 | 0.00 | 0.00 | 76 | 1011.2 |
| 20260831161521 | 84 | 81 | 0.0 | 0.0 | 0.00 | 0.00 | 0.00 | 78 | 1011.0 |
| 20260831161016 | 83 | 81 | 1.0 | 1.0 | 0.00 | 0.00 | 0.00 | 77 | 1011.2 |
| 20260831160516 | 83 | 81 | 0.0 | 1.0 | 0.00 | 0.00 | 0.00 | 78 | 1011.4 |
| 20260831160012 | 83 | 80 | 3.0 | 3.0 | 0.00 | 0.00 | 0.00 | 78 | 1011.3 |
| 20260831155506 | 83 | 81 | 1.0 | 1.0 | 0.00 | 0.00 | 0.00 | 78 | 1011.0 |
| 20260831155001 | 82 | 82 | 0.0 | 0.0 | 0.00 | 0.00 | 0.00 | 80 | 1010.9 |
| 20260831154458 | 82 | 83 | 3.0 | 3.0 | 0.00 | 0.00 | 0.00 | 77 | 1011.2 |
| 20260831153956 | 82 | 82 | 1.0 | 1.0 | 0.00 | 0.00 | 0.00 | 79 | 1011.2 |
| 20260831153452 | 82 | 82 | 0.0 | 0.0 | 0.00 | 0.00 | 0.00 | 80 | 1011.0 |
| 20260831152949 | 81 | 82 | 1.0 | 1.0 | 0.00 | 0.00 | 0.00 | 79 | 1011.6 |
| 20260831152443 | 80 | 82 | 1.0 | 2.0 | 0.00 | 0.00 | 0.00 | 78 | 1011.5 |
| 20260831151939 | 80 | 85 | 2.0 | 5.0 | 0.00 | 0.00 | 0.00 | 80 | 1011.5 |
| 20260831151437 | 80 | 82 | 2.0 | 2.0 | 0.00 | 0.00 | 0.00 | 79 | 1012.0 |
| 20260831150933 | 80 | 82 | 0.0 | 0.0 | 0.00 | 0.00 | 0.00 | 80 | 1011.9 |
| 20260831150429 | 79 | 83 | 2.0 | 2.0 | 0.00 | 0.00 | 0.00 | 79 | 1011.7 |
| 20260831145928 | 78 | 82 | 0.0 | 1.0 | 0.00 | 0.00 | 0.00 | 80 | 1011.5 |
| 20260831145424 | 78 | 82 | 1.0 | 1.0 | 0.00 | 0.00 | 0.00 | 81 | 1011.6 |
| 20260831144919 | 78 | 83 | 2.0 | 3.0 | 0.00 | 0.00 | 0.00 | 81 | 1011.8 |
| 20260831144409 | 77 | 84 | 2.0 | 3.0 | 0.00 | 0.00 | 0.00 | 82 | 1011.8 |
| 20260831143904 | 77 | 82 | 1.0 | 2.0 | 0.00 | 0.00 | 0.00 | 83 | 1011.5 |
| 20260831143359 | 76 | 82 | 1.0 | 1.0 | 0.00 | 0.00 | 0.00 | 83 | 1011.5 |
| 20260831142854 | 76 | 82 | 2.0 | 2.0 | 0.00 | 0.00 | 0.00 | 84 | 1011.5 |
| 20260831142350 | 75 | 83 | 3.0 | 3.0 | 0.00 | 0.00 | 0.00 | 85 | 1011.8 |
| 20260831141844 | 75 | 81 | 0.0 | 0.0 | 0.00 | 0.00 | 0.00 | 85 | 1011.4 |
| 20260831141338 | 75 | 81 | 0.0 | 0.0 | 0.00 | 0.00 | 0.00 | 85 | 1011.4 |
| 20260831140834 | 75 | 81 | 1.0 | 1.0 | 0.00 | 0.00 | 0.00 | 86 | 1011.4 |
| 20260831140328 | 74 | 81 | 0.0 | 0.0 | 0.00 | 0.00 | 0.00 | 86 | 1011.7 |
| 20260831135826 | 75 | 81 | 0.0 | 1.0 | 0.00 | 0.00 | 0.00 | 87 | 1011.6 |
| 20260831135322 | 75 | 81 | 0.0 | 1.0 | 0.00 | 0.00 | 0.00 | 85 | 1011.4 |
| 20260831134817 | 75 | 81 | 0.0 | 0.0 | 0.00 | 0.00 | 0.00 | 84 | 1011.3 |
| 20260831134314 | 75 | 81 | 0.0 | 0.0 | 0.00 | 0.00 | 0.00 | 85 | 1010.9 |
| 20260831133812 | 75 | 81 | 0.0 | 0.0 | 0.00 | 0.00 | 0.00 | 83 | 1010.8 |
| 20260831133307 | 75 | 81 | 0.0 | 0.0 | 0.00 | 0.00 | 0.00 | 83 | 1010.9 |
| 20260831132802 | 74 | 81 | 0.0 | 1.0 | 0.00 | 0.00 | 0.00 | 84 | 1011.3 |
| 20260831132257 | 74 | 81 | 0.0 | 0.0 | 0.00 | 0.00 | 0.00 | 85 | 1011.3 |
| 20260831131756 | 74 | 81 | 0.0 | 1.0 | 0.00 | 0.00 | 0.00 | 86 | 1011.2 |
| 20260831131253 | 73 | 81 | 0.0 | 0.0 | 0.00 | 0.00 | 0.00 | 86 | 1010.8 |
| 20260831130748 | 73 | 82 | 2.0 | 3.0 | 0.00 | 0.00 | 0.00 | 86 | 1010.9 |
| 20260831130243 | 73 | 80 | 1.0 | 1.0 | 0.00 | 0.00 | 0.00 | 87 | 1011.0 |
| 20260831125742 | 73 | 80 | 0.0 | 0.0 | 0.00 | 0.00 | 0.00 | 87 | 1010.6 |
| 20260831125238 | 73 | 81 | 0.0 | 0.0 | 0.00 | 0.00 | 0.00 | 87 | 1010.6 |
| 20260831124732 | 73 | 81 | 0.0 | 0.0 | 0.00 | 0.00 | 0.00 | 88 | 1010.7 |
| 20260831124229 | 73 | 81 | 0.0 | 0.0 | 0.00 | 0.00 | 0.00 | 87 | 1010.4 |
| 20260831123728 | 73 | 81 | 0.0 | 0.0 | 0.00 | 0.00 | 0.00 | 87 | 1010.5 |
| 20260831123227 | 72 | 81 | 0.0 | 0.0 | 0.00 | 0.00 | 0.00 | 87 | 1010.3 |
| 20260831122722 | 72 | 81 | 0.0 | 0.0 | 0.00 | 0.00 | 0.00 | 87 | 1010.2 |
| 20260831122218 | 72 | 80 | 1.0 | 1.0 | 0.00 | 0.00 | 0.00 | 88 | 1010.2 |
| 20260831121717 | 72 | 80 | 0.0 | 0.0 | 0.00 | 0.00 | 0.00 | 88 | 1009.7 |
| 20260831121214 | 72 | 80 | 0.0 | 0.0 | 0.00 | 0.00 | 0.00 | 88 | 1009.8 |
| 20260831120709 | 72 | 81 | 0.0 | 0.0 | 0.00 | 0.00 | 0.00 | 88 | 1010.0 |
| 20260831120203 | 72 | 81 | 0.0 | 0.0 | 0.00 | 0.00 | 0.00 | 88 | 1009.7 |
| 20260831115659 | 72 | 81 | 0.0 | 0.0 | 0.00 | 0.00 | 0.00 | 87 | 1009.9 |
| 20260831115155 | 72 | 81 | 0.0 | 0.0 | 0.00 | 0.00 | 0.00 | 86 | 1009.9 |
| 20260831114654 | 73 | 81 | 0.0 | 0.0 | 0.00 | 0.00 | 0.00 | 86 | 1009.8 |
| 20260831114148 | 73 | 81 | 0.0 | 0.0 | 0.00 | 0.00 | 0.00 | 86 | 1009.4 |
| 20260831113648 | 73 | 81 | 0.0 | 0.0 | 0.00 | 0.00 | 0.00 | 85 | 1009.8 |
| 20260831113143 | 73 | 82 | 0.0 | 0.0 | 0.00 | 0.00 | 0.00 | 85 | 1009.6 |
| 20260831112642 | 73 | 81 | 0.0 | 0.0 | 0.00 | 0.00 | 0.00 | 85 | 1009.7 |
| 20260831112138 | 73 | 82 | 0.0 | 0.0 | 0.00 | 0.00 | 0.00 | 84 | 1009.8 |
| 20260831111634 | 73 | 81 | 1.0 | 1.0 | 0.00 | 0.00 | 0.00 | 84 | 1009.8 |
| 20260831111130 | 73 | 81 | 0.0 | 0.0 | 0.00 | 0.00 | 0.00 | 85 | 1009.4 |
| 20260831110625 | 73 | 82 | 0.0 | 0.0 | 0.00 | 0.00 | 0.00 | 84 | 1009.4 |
| 20260831110120 | 73 | 82 | 0.0 | 0.0 | 0.00 | 0.00 | 0.00 | 85 | 1009.5 |
| 20260831105619 | 73 | 82 | 0.0 | 0.0 | 0.00 | 0.00 | 0.00 | 85 | 1009.4 |
| 20260831105114 | 73 | 81 | 0.0 | 0.0 | 0.00 | 0.00 | 0.00 | 85 | 1009.4 |
| 20260831104610 | 73 | 82 | 2.0 | 2.0 | 0.00 | 0.00 | 0.00 | 85 | 1009.6 |
| 20260831104106 | 73 | 81 | 0.0 | 0.0 | 0.00 | 0.00 | 0.00 | 84 | 1009.4 |
| 20260831103601 | 74 | 82 | 1.0 | 2.0 | 0.00 | 0.00 | 0.00 | 84 | 1009.3 |
| 20260831103056 | 74 | 81 | 1.0 | 2.0 | 0.00 | 0.00 | 0.00 | 83 | 1009.4 |
| 20260831102550 | 74 | 83 | 2.0 | 3.0 | 0.00 | 0.00 | 0.00 | 82 | 1009.3 |
| 20260831102046 | 75 | 82 | 0.0 | 1.0 | 0.00 | 0.00 | 0.00 | 82 | 1009.4 |
| 20260831101540 | 75 | 82 | 1.0 | 2.0 | 0.00 | 0.00 | 0.00 | 82 | 1009.4 |
| 20260831101037 | 75 | 82 | 1.0 | 1.0 | 0.00 | 0.00 | 0.00 | 81 | 1009.4 |
| 20260831100532 | 75 | 82 | 0.0 | 1.0 | 0.00 | 0.00 | 0.00 | 81 | 1008.9 |
| 20260831100029 | 75 | 84 | 3.0 | 3.0 | 0.00 | 0.00 | 0.00 | 81 | 1009.2 |
| 20260831095527 | 75 | 82 | 1.0 | 1.0 | 0.00 | 0.00 | 0.00 | 81 | 1009.1 |
| 20260831095021 | 75 | 82 | 1.0 | 1.0 | 0.00 | 0.00 | 0.00 | 81 | 1009.0 |
| 20260831094518 | 75 | 82 | 0.0 | 0.0 | 0.00 | 0.00 | 0.00 | 81 | 1009.0 |
| 20260831094014 | 75 | 82 | 1.0 | 2.0 | 0.00 | 0.00 | 0.00 | 81 | 1009.1 |
| 20260831093513 | 75 | 82 | 1.0 | 1.0 | 0.00 | 0.00 | 0.00 | 81 | 1009.1 |
| 20260831093010 | 75 | 83 | 3.0 | 3.0 | 0.00 | 0.00 | 0.00 | 81 | 1009.1 |
| 20260831092505 | 75 | 83 | 2.0 | 3.0 | 0.00 | 0.00 | 0.00 | 80 | 1009.1 |
| 20260831092001 | 75 | 82 | 1.0 | 1.0 | 0.00 | 0.00 | 0.00 | 81 | 1009.1 |
| 20260831091455 | 76 | 82 | 1.0 | 1.0 | 0.00 | 0.00 | 0.00 | 81 | 1008.8 |
| 20260831090951 | 76 | 82 | 1.0 | 2.0 | 0.00 | 0.00 | 0.00 | 80 | 1009.1 |
| 20260831090447 | 76 | 85 | 1.0 | 1.0 | 0.00 | 0.00 | 0.00 | 80 | 1009.0 |
| 20260831085943 | 76 | 85 | 3.0 | 5.0 | 0.00 | 0.00 | 0.00 | 80 | 1009.0 |
| 20260831085438 | 76 | 84 | 1.0 | 1.0 | 0.00 | 0.00 | 0.00 | 80 | 1009.0 |
| 20260831084937 | 76 | 84 | 1.0 | 1.0 | 0.00 | 0.00 | 0.00 | 80 | 1009.1 |
| 20260831084433 | 76 | 85 | 2.0 | 2.0 | 0.00 | 0.00 | 0.00 | 80 | 1009.2 |
| 20260831083930 | 77 | 84 | 1.0 | 2.0 | 0.00 | 0.00 | 0.00 | 80 | 1009.2 |
| 20260831083425 | 77 | 83 | 0.0 | 0.0 | 0.00 | 0.00 | 0.00 | 79 | 1009.2 |
| 20260831082924 | 77 | 84 | 2.0 | 2.0 | 0.00 | 0.00 | 0.00 | 79 | 1008.9 |
| 20260831082424 | 77 | 84 | 3.0 | 3.0 | 0.00 | 0.00 | 0.00 | 79 | 1009.0 |
| 20260831081919 | 77 | 83 | 1.0 | 1.0 | 0.00 | 0.00 | 0.00 | 80 | 1009.1 |
| 20260831081415 | 77 | 83 | 1.0 | 1.0 | 0.00 | 0.00 | 0.00 | 80 | 1008.8 |
| 20260831080911 | 77 | 82 | 1.0 | 1.0 | 0.00 | 0.00 | 0.00 | 80 | 1008.9 |
| 20260831080406 | 77 | 82 | 1.0 | 1.0 | 0.00 | 0.00 | 0.00 | 80 | 1008.9 |
| 20260831075901 | 77 | 84 | 3.0 | 6.0 | 0.00 | 0.00 | 0.00 | 80 | 1008.9 |
| 20260831075356 | 77 | 83 | 1.0 | 1.0 | 0.00 | 0.00 | 0.00 | 80 | 1008.9 |
| 20260831074851 | 77 | 82 | 1.0 | 1.0 | 0.00 | 0.00 | 0.00 | 80 | 1008.9 |
| 20260831074350 | 77 | 82 | 1.0 | 2.0 | 0.00 | 0.00 | 0.00 | 80 | 1009.0 |
| 20260831073846 | 77 | 82 | 2.0 | 2.0 | 0.00 | 0.00 | 0.00 | 81 | 1009.1 |
| 20260831073345 | 77 | 82 | 1.0 | 1.0 | 0.00 | 0.00 | 0.00 | 82 | 1009.1 |
| 20260831072840 | 77 | 82 | 1.0 | 1.0 | 0.00 | 0.00 | 0.00 | 81 | 1009.3 |
| 20260831072336 | 77 | 83 | 1.0 | 2.0 | 0.00 | 0.00 | 0.00 | 82 | 1009.2 |
| 20260831071832 | 77 | 83 | 1.0 | 1.0 | 0.00 | 0.00 | 0.00 | 82 | 1009.1 |
| 20260831071331 | 77 | 83 | 1.0 | 2.0 | 0.00 | 0.00 | 0.00 | 83 | 1009.1 |
| 20260831070826 | 77 | 82 | 0.0 | 1.0 | 0.00 | 0.00 | 0.00 | 83 | 1009.1 |
| 20260831070325 | 77 | 83 | 1.0 | 1.0 | 0.00 | 0.00 | 0.00 | 84 | 1009.2 |
| 20260831065824 | 77 | 82 | 1.0 | 1.0 | 0.00 | 0.00 | 0.00 | 84 | 1009.1 |
| 20260831065322 | 77 | 83 | 1.0 | 1.0 | 0.00 | 0.00 | 0.00 | 84 | 1009.2 |
| 20260831064817 | 77 | 82 | 1.0 | 1.0 | 0.00 | 0.00 | 0.00 | 84 | 1009.1 |
| 20260831064313 | 77 | 82 | 0.0 | 1.0 | 0.00 | 0.00 | 0.00 | 84 | 1009.2 |
| 20260831063809 | 76 | 82 | 0.0 | 1.0 | 0.00 | 0.00 | 0.00 | 85 | 1009.2 |
| 20260831063304 | 77 | 82 | 1.0 | 1.0 | 0.00 | 0.00 | 0.00 | 85 | 1009.3 |
| 20260831062803 | 76 | 82 | 0.0 | 0.0 | 0.00 | 0.00 | 0.00 | 86 | 1009.4 |
| 20260831062258 | 77 | 82 | 0.0 | 0.0 | 0.00 | 0.00 | 0.00 | 86 | 1009.4 |
| 20260831061757 | 77 | 82 | 0.0 | 1.0 | 0.00 | 0.00 | 0.00 | 86 | 1009.4 |
| 20260831061251 | 77 | 82 | 1.0 | 1.0 | 0.00 | 0.00 | 0.00 | 86 | 1009.2 |
| 20260831060748 | 77 | 82 | 1.0 | 1.0 | 0.00 | 0.00 | 0.00 | 86 | 1009.3 |
| 20260831060247 | 77 | 82 | 0.0 | 0.0 | 0.00 | 0.00 | 0.00 | 86 | 1009.4 |
| 20260831055747 | 77 | 82 | 0.0 | 0.0 | 0.00 | 0.00 | 0.00 | 86 | 1009.1 |
| 20260831055242 | 77 | 82 | 0.0 | 0.0 | 0.00 | 0.00 | 0.00 | 86 | 1009.4 |
| 20260831054737 | 77 | 82 | 0.0 | 0.0 | 0.00 | 0.00 | 0.00 | 86 | 1009.2 |
| 20260831054232 | 77 | 82 | 0.0 | 0.0 | 0.00 | 0.00 | 0.00 | 86 | 1009.3 |
| 20260831053731 | 77 | 82 | 0.0 | 1.0 | 0.00 | 0.00 | 0.00 | 86 | 1009.3 |
| 20260831053230 | 77 | 82 | 1.0 | 1.0 | 0.00 | 0.00 | 0.00 | 87 | 1009.2 |
| 20260831052729 | 77 | 82 | 0.0 | 0.0 | 0.00 | 0.00 | 0.00 | 87 | 1009.1 |
| 20260831052223 | 77 | 82 | 1.0 | 2.0 | 0.00 | 0.00 | 0.00 | 87 | 1009.1 |
| 20260831051722 | 77 | 82 | 1.0 | 1.0 | 0.00 | 0.00 | 0.00 | 87 | 1009.3 |
| 20260831051220 | 77 | 82 | 0.0 | 1.0 | 0.00 | 0.00 | 0.00 | 87 | 1009.2 |
| 20260831050715 | 77 | 82 | 0.0 | 0.0 | 0.00 | 0.00 | 0.00 | 87 | 1009.3 |
| 20260831050214 | 77 | 82 | 0.0 | 1.0 | 0.00 | 0.00 | 0.00 | 87 | 1009.1 |
| 20260831045709 | 78 | 82 | 0.0 | 0.0 | 0.00 | 0.02 | 0.02 | 87 | 1009.0 |
| 20260831045204 | 78 | 82 | 0.0 | 1.0 | 0.00 | 0.02 | 0.02 | 87 | 1009.2 |
| 20260831044659 | 78 | 82 | 0.0 | 1.0 | 0.00 | 0.02 | 0.02 | 87 | 1009.2 |
| 20260831044154 | 78 | 82 | 0.0 | 0.0 | 0.00 | 0.02 | 0.02 | 87 | 1009.4 |
| 20260831043649 | 78 | 82 | 0.0 | 0.0 | 0.00 | 0.02 | 0.02 | 87 | 1009.1 |
| 20260831043144 | 78 | 82 | 0.0 | 0.0 | 0.00 | 0.02 | 0.02 | 86 | 1009.1 |
| 20260831042643 | 78 | 82 | 0.0 | 1.0 | 0.00 | 0.02 | 0.02 | 87 | 1009.1 |
| 20260831042138 | 79 | 82 | 0.0 | 1.0 | 0.00 | 0.02 | 0.02 | 87 | 1009.3 |
| 20260831041633 | 79 | 82 | 1.0 | 1.0 | 0.00 | 0.02 | 0.02 | 87 | 1008.9 |
| 20260831041127 | 78 | 82 | 1.0 | 2.0 | 0.00 | 0.02 | 0.02 | 88 | 1009.1 |
| 20260831040622 | 78 | 82 | 1.0 | 1.0 | 0.00 | 0.02 | 0.02 | 88 | 1009.2 |
| 20260831040121 | 78 | 82 | 0.0 | 0.0 | 0.00 | 0.02 | 0.02 | 88 | 1008.9 |
| 20260831035620 | 79 | 82 | 0.0 | 0.0 | 0.00 | 0.02 | 0.02 | 89 | 1009.1 |
| 20260831035115 | 79 | 82 | 0.0 | 0.0 | 0.00 | 0.02 | 0.02 | 89 | 1009.2 |
| 20260831034614 | 79 | 82 | 0.0 | 0.0 | 0.00 | 0.02 | 0.02 | 89 | 1008.9 |
| 20260831034109 | 79 | 82 | 1.0 | 1.0 | 0.00 | 0.02 | 0.02 | 89 | 1009.1 |
| 20260831033605 | 79 | 82 | 0.0 | 1.0 | 0.00 | 0.02 | 0.02 | 88 | 1009.3 |
| 20260831033100 | 79 | 82 | 1.0 | 1.0 | 0.00 | 0.02 | 0.02 | 89 | 1009.3 |
| 20260831032559 | 79 | 82 | 1.0 | 2.0 | 0.00 | 0.02 | 0.02 | 88 | 1009.1 |
| 20260831032055 | 79 | 82 | 0.0 | 0.0 | 0.00 | 0.02 | 0.02 | 88 | 1009.1 |
| 20260831031555 | 79 | 82 | 0.0 | 0.0 | 0.00 | 0.02 | 0.02 | 88 | 1009.4 |
| 20260831031054 | 80 | 82 | 1.0 | 1.0 | 0.00 | 0.02 | 0.02 | 88 | 1009.3 |
| 20260831030553 | 80 | 82 | 0.0 | 0.0 | 0.00 | 0.02 | 0.02 | 88 | 1008.9 |
| 20260831030052 | 80 | 82 | 0.0 | 0.0 | 0.00 | 0.02 | 0.02 | 88 | 1009.3 |
| 20260831025551 | 80 | 82 | 0.0 | 0.0 | 0.00 | 0.02 | 0.02 | 88 | 1009.2 |
| 20260831025046 | 80 | 82 | 0.0 | 0.0 | 0.00 | 0.02 | 0.02 | 88 | 1009.2 |
| 20260831024542 | 80 | 82 | 0.0 | 1.0 | 0.00 | 0.02 | 0.02 | 88 | 1009.2 |
| 20260831024040 | 80 | 82 | 0.0 | 0.0 | 0.00 | 0.02 | 0.02 | 89 | 1009.3 |
| 20260831023539 | 80 | 82 | 0.0 | 0.0 | 0.00 | 0.02 | 0.02 | 89 | 1009.3 |
| 20260831023034 | 79 | 82 | 0.0 | 0.0 | 0.00 | 0.02 | 0.02 | 91 | 1009.4 |
| 20260831022533 | 79 | 82 | 0.0 | 1.0 | 0.00 | 0.02 | 0.02 | 92 | 1009.3 |
| 20260831022029 | 78 | 82 | 1.0 | 2.0 | 0.00 | 0.02 | 0.02 | 93 | 1009.2 |
| 20260831021527 | 78 | 82 | 0.0 | 0.0 | 0.00 | 0.02 | 0.02 | 94 | 1009.2 |
| 20260831021024 | 78 | 82 | 0.0 | 0.0 | 0.00 | 0.02 | 0.02 | 95 | 1009.3 |
| 20260831020519 | 78 | 82 | 0.0 | 0.0 | 0.00 | 0.02 | 0.02 | 95 | 1009.4 |
| 20260831020013 | 78 | 82 | 0.0 | 0.0 | 0.00 | 0.02 | 0.02 | 94 | 1009.2 |
| 20260831015509 | 79 | 82 | 0.0 | 0.0 | 0.00 | 0.02 | 0.02 | 94 | 1009.3 |
| 20260831015004 | 79 | 82 | 0.0 | 0.0 | 0.00 | 0.02 | 0.02 | 94 | 1009.0 |
| 20260831014458 | 79 | 82 | 0.0 | 0.0 | 0.00 | 0.02 | 0.02 | 94 | 1009.2 |
| 20260831013954 | 79 | 81 | 1.0 | 1.0 | 0.00 | 0.02 | 0.02 | 94 | 1009.2 |
| 20260831013450 | 79 | 82 | 0.0 | 0.0 | 0.00 | 0.02 | 0.02 | 94 | 1008.9 |
| 20260831012944 | 79 | 82 | 0.0 | 0.0 | 0.00 | 0.02 | 0.02 | 94 | 1008.8 |
| 20260831012439 | 79 | 82 | 1.0 | 1.0 | 0.00 | 0.02 | 0.02 | 94 | 1008.9 |
| 20260831011939 | 79 | 82 | 0.0 | 0.0 | 0.00 | 0.02 | 0.02 | 95 | 1008.9 |
| 20260831011433 | 79 | 82 | 0.0 | 1.0 | 0.00 | 0.02 | 0.02 | 95 | 1008.9 |
| 20260831010929 | 79 | 82 | 0.0 | 0.0 | 0.00 | 0.02 | 0.02 | 95 | 1008.8 |
| 20260831010424 | 79 | 82 | 0.0 | 0.0 | 0.00 | 0.02 | 0.02 | 95 | 1008.8 |
| 20260831005920 | 79 | 82 | 0.0 | 0.0 | 0.00 | 0.02 | 0.02 | 94 | 1008.8 |
| 20260831005415 | 79 | 82 | 0.0 | 0.0 | 0.00 | 0.02 | 0.02 | 94 | 1008.9 |
| 20260831004909 | 80 | 82 | 0.0 | 0.0 | 0.00 | 0.02 | 0.02 | 94 | 1008.9 |
| 20260831004406 | 80 | 82 | 0.0 | 0.0 | 0.00 | 0.02 | 0.02 | 93 | 1008.6 |
| 20260831003901 | 80 | 82 | 0.0 | 0.0 | 0.00 | 0.02 | 0.02 | 92 | 1008.9 |
| 20260831003357 | 81 | 82 | 0.0 | 0.0 | 0.00 | 0.02 | 0.02 | 92 | 1008.6 |
| 20260831002857 | 81 | 82 | 0.0 | 0.0 | 0.00 | 0.02 | 0.02 | 91 | 1008.8 |
| 20260831002356 | 81 | 83 | 0.0 | 0.0 | 0.00 | 0.02 | 0.02 | 90 | 1008.8 |
| 20260831001851 | 82 | 83 | 0.0 | 0.0 | 0.00 | 0.02 | 0.02 | 89 | 1008.8 |
| 20260831001346 | 82 | 83 | 0.0 | 0.0 | 0.00 | 0.02 | 0.02 | 89 | 1008.8 |
| 20260831000843 | 83 | 83 | 0.0 | 0.0 | 0.00 | 0.02 | 0.02 | 88 | 1008.9 |
| 20260831000340 | 83 | 83 | 0.0 | 0.0 | 0.00 | 0.02 | 0.02 | 88 | 1009.0 |
| 20260830235836 | 83 | 83 | 0.0 | 0.0 | 0.00 | 0.02 | 0.02 | 88 | 1009.1 |
| 20260830235331 | 83 | 83 | 0.0 | 0.0 | 0.00 | 0.02 | 0.02 | 88 | 1009.0 |
| 20260830234827 | 83 | 83 | 0.0 | 0.0 | 0.00 | 0.02 | 0.02 | 87 | 1008.9 |
| 20260830234323 | 83 | 83 | 0.0 | 0.0 | 0.00 | 0.02 | 0.02 | 87 | 1008.8 |
| 20260830233818 | 83 | 83 | 0.0 | 0.0 | 0.00 | 0.02 | 0.02 | 86 | 1008.8 |
| 20260830233313 | 83 | 83 | 0.0 | 0.0 | 0.00 | 0.02 | 0.02 | 86 | 1008.9 |
| 20260830232809 | 83 | 83 | 0.0 | 0.0 | 0.00 | 0.02 | 0.02 | 86 | 1008.8 |
| 20260830232306 | 83 | 83 | 0.0 | 1.0 | 0.00 | 0.02 | 0.02 | 87 | 1008.6 |
| 20260830231801 | 83 | 83 | 1.0 | 1.0 | 0.00 | 0.02 | 0.02 | 87 | 1008.5 |
| 20260830231301 | 83 | 83 | 1.0 | 1.0 | 0.00 | 0.02 | 0.02 | 86 | 1008.6 |
| 20260830230755 | 83 | 83 | 0.0 | 0.0 | 0.00 | 0.02 | 0.02 | 85 | 1008.6 |
| 20260830230251 | 84 | 83 | 1.0 | 1.0 | 0.00 | 0.02 | 0.02 | 85 | 1008.4 |
| 20260830225750 | 84 | 83 | 0.0 | 0.0 | 0.00 | 0.02 | 0.02 | 83 | 1008.4 |
| 20260830225246 | 85 | 84 | 0.0 | 0.0 | 0.00 | 0.02 | 0.02 | 82 | 1008.6 |
| 20260830224744 | 84 | 84 | 1.0 | 2.0 | 0.00 | 0.02 | 0.02 | 84 | 1008.5 |
| 20260830224240 | 83 | 83 | 0.0 | 1.0 | 0.00 | 0.02 | 0.02 | 83 | 1008.7 |
| 20260830223736 | 83 | 83 | 0.0 | 0.0 | 0.00 | 0.02 | 0.02 | 83 | 1008.7 |
| 20260830223232 | 83 | 83 | 1.0 | 1.0 | 0.00 | 0.02 | 0.02 | 83 | 1008.9 |
| 20260830222726 | 83 | 83 | 1.0 | 1.0 | 0.00 | 0.02 | 0.02 | 83 | 1008.7 |
| 20260830222222 | 83 | 84 | 0.0 | 1.0 | 0.00 | 0.02 | 0.02 | 82 | 1008.8 |
| 20260830221717 | 84 | 83 | 0.0 | 1.0 | 0.00 | 0.02 | 0.02 | 82 | 1008.7 |
| 20260830221214 | 84 | 84 | 0.0 | 1.0 | 0.00 | 0.02 | 0.02 | 81 | 1008.4 |
| 20260830220709 | 86 | 84 | 1.0 | 1.0 | 0.00 | 0.02 | 0.02 | 78 | 1008.6 |
| 20260830220208 | 86 | 84 | 0.0 | 1.0 | 0.00 | 0.02 | 0.02 | 80 | 1008.4 |
| 20260830215707 | 85 | 84 | 2.0 | 3.0 | 0.00 | 0.02 | 0.02 | 82 | 1008.4 |
| 20260830215202 | 84 | 84 | 1.0 | 1.0 | 0.00 | 0.02 | 0.02 | 81 | 1008.4 |
| 20260830214657 | 84 | 84 | 0.0 | 1.0 | 0.00 | 0.02 | 0.02 | 83 | 1008.4 |
| 20260830214157 | 84 | 84 | 1.0 | 1.0 | 0.00 | 0.02 | 0.02 | 81 | 1008.8 |
| 20260830213656 | 84 | 84 | 1.0 | 1.0 | 0.00 | 0.02 | 0.02 | 81 | 1008.7 |
| 20260830213152 | 84 | 83 | 0.0 | 0.0 | 0.00 | 0.02 | 0.02 | 80 | 1008.8 |
| 20260830212648 | 84 | 84 | 0.0 | 1.0 | 0.00 | 0.02 | 0.02 | 80 | 1008.7 |
| 20260830212142 | 83 | 83 | 0.0 | 0.0 | 0.00 | 0.02 | 0.02 | 81 | 1008.9 |
| 20260830211638 | 84 | 84 | 1.0 | 1.0 | 0.00 | 0.02 | 0.02 | 79 | 1009.0 |
| 20260830211136 | 84 | 84 | 2.0 | 2.0 | 0.00 | 0.02 | 0.02 | 79 | 1008.9 |
| 20260830210633 | 85 | 84 | 0.0 | 1.0 | 0.00 | 0.02 | 0.02 | 78 | 1009.0 |
| 20260830210132 | 86 | 84 | 1.0 | 1.0 | 0.00 | 0.02 | 0.02 | 77 | 1008.8 |
| 20260830205629 | 86 | 84 | 0.0 | 1.0 | 0.00 | 0.02 | 0.02 | 75 | 1008.6 |
| 20260830205125 | 85 | 84 | 1.0 | 1.0 | 0.00 | 0.02 | 0.02 | 79 | 1008.5 |
| 20260830204624 | 85 | 84 | 0.0 | 1.0 | 0.00 | 0.02 | 0.02 | 79 | 1008.6 |
| 20260830204123 | 84 | 83 | 0.0 | 0.0 | 0.00 | 0.02 | 0.02 | 83 | 1008.9 |
| 20260830203619 | 83 | 84 | 0.0 | 0.0 | 0.00 | 0.02 | 0.02 | 81 | 1008.9 |
| 20260830203119 | 83 | 84 | 0.0 | 1.0 | 0.00 | 0.02 | 0.02 | 82 | 1009.1 |
| 20260830202619 | 83 | 84 | 0.0 | 1.0 | 0.00 | 0.02 | 0.02 | 81 | 1009.1 |
| 20260830202114 | 83 | 84 | 2.0 | 2.0 | 0.00 | 0.02 | 0.02 | 80 | 1009.0 |